Temperature
8 8 7 7 7 7 7 7 7 7 6 6 6 6 6 6 6 6 6 6 5 5 5 5 5 4 4 4 4 3 3 3 2 2 2 3 3 3 3 3 2 2 2
7 7 7 7 7 7 6 6 6 6 6 6 6 6 6 6 5 5 5 5 5 5 5 4 4 4 4 4 3 3 3 2 2 2 2 2 2 2 2 2 2 2 2
7 7 7 7 6 6 6 6 6 6 6 6 6 6 5 5 5 5 5 5 4 4 4 4 4 3 3 3 3 3 2 2 2 2 2 2 1 1 1 1 1 1 1
7 7 6 6 6 6 6 6 6 6 6 5 5 5 5 5 5 4 4 4 4 4 4 4 3 3 3 3 2 2 2 2 1 1 1 1 1 1 0 0 0 0 0
6 6 6 6 6 6 6 6 5 5 5 5 5 5 5 4 4 4 4 4 3 3 3 3 3 3 3 2 2 2 1 1 1 1 0 0 0 -0 -0 -0 -0 -0 -0
6 6 6 6 5 5 5 5 5 5 5 5 4 4 4 4 4 4 3 3 3 3 3 3 2 2 2 2 2 2 1 1 0 0 -0 -0 -1 -1 -1 -1 -1 -1 -2
6 5 5 5 5 5 5 5 5 4 4 4 4 4 4 4 3 3 3 3 3 3 2 2 2 2 2 2 1 1 1 1 0 -0 -1 -1 -1 -1 -2 -2 -2 -2 -2
5 5 5 5 4 4 4 4 4 4 4 4 3 3 3 3 3 3 3 2 2 2 2 2 1 1 1 1 0 0 0 0 -0 -1 -1 -1 -1 -2 -2 -2 -3 -3 -3
5 4 4 4 4 4 4 4 3 3 3 3 3 3 3 3 3 2 2 2 2 2 2 1 1 1 1 0 -0 -0 -0 -0 -1 -1 -1 -2 -2 -2 -3 -3 -3 -3 -3
4 4 4 4 4 3 3 3 3 3 3 3 3 2 2 2 2 2 2 1 1 1 1 1 1 1 0 -0 -1 -1 -1 -1 -1 -2 -2 -2 -2 -3 -3 -3 -4 -4 -4
4 4 3 3 3 3 3 3 3 2 2 2 2 2 2 2 2 2 1 1 1 1 1 1 0 0 -0 -1 -1 -2 -2 -2 -2 -3 -3 -3 -3 -3 -3 -4 -4 -4 -5
4 3 3 3 3 3 2 2 2 2 2 2 2 2 2 1 1 1 1 0 0 -0 0 -0 -0 -0 -1 -1 -2 -2 -2 -3 -3 -3 -4 -4 -4 -4 -4 -4 -4 -4 -5
3 3 3 3 3 2 2 2 2 2 1 1 1 1 1 1 1 1 0 0 -0 -1 -1 -1 -1 -1 -1 -2 -2 -3 -3 -4 -4 -4 -4 -4 -4 -4 -4 -4 -5 -5 -5
3 3 3 2 2 2 2 2 1 1 1 1 1 1 1 0 0 0 -0 -0 -0 -1 -1 -1 -2 -2 -2 -2 -3 -3 -3 -4 -4 -4 -4 -5 -5 -5 -5 -5 -5 -5 -5
3 2 2 2 2 2 1 1 1 1 0 0 0 -0 -0 -0 -0 -1 -1 -1 -1 -2 -2 -2 -2 -3 -3 -3 -3 -4 -4 -4 -5 -5 -5 -5 -5 -5 -5 -6 -6 -6 -6
2 2 2 2 1 1 1 1 1 0 0 -0 -0 -1 -1 -1 -1 -1 -1 -2 -2 -2 -3 -3 -3 -3 -4 -4 -4 -4 -4 -5 -5 -5 -5 -5 -6 -6 -6 -6 -6 -7 -7
2 2 1 1 1 1 0 0 0 0 -0 -0 -1 -1 -1 -1 -1 -2 -2 -2 -2 -3 -3 -3 -4 -4 -4 -4 -4 -5 -5 -5 -5 -5 -6 -6 -6 -6 -6 -7 -7 -7 -7
1 1 1 1 0 0 -0 -0 -1 -1 -1 -1 -1 -1 -1 -2 -2 -2 -2 -3 -3 -3 -4 -4 -4 -4 -5 -5 -5 -5 -5 -5 -5 -6 -6 -6 -6 -7 -7 -7 -7 -7 -7
1 1 0 0 -0 -1 -1 -1 -1 -1 -2 -2 -2 -2 -2 -2 -2 -2 -3 -3 -3 -4 -4 -4 -5 -5 -5 -5 -5 -5 -5 -5 -6 -6 -6 -6 -7 -7 -7 -7 -7 -7 -8
0 0 -0 -0 -1 -1 -1 -2 -2 -2 -2 -2 -3 -3 -3 -3 -3 -3 -3 -4 -4 -4 -5 -5 -5 -5 -5 -5 -5 -5 -6 -6 -6 -6 -6 -7 -7 -7 -7 -7 -8 -8 -8
0 -0 -1 -1 -1 -2 -2 -2 -2 -3 -3 -3 -3 -3 -4 -4 -4 -4 -4 -4 -4 -5 -5 -5 -5 -6 -6 -6 -6 -6 -6 -6 -6 -7 -7 -7 -7 -7 -8 -8 -8 -8 -8
-1 -1 -1 -2 -2 -2 -2 -3 -3 -3 -3 -3 -4 -4 -4 -4 -4 -5 -5 -5 -5 -5 -5 -5 -6 -6 -6 -6 -6 -6 -6 -7 -7 -7 -7 -7 -7 -8 -8 -8 -8 -8 -8
-1 -1 -2 -2 -2 -3 -3 -3 -3 -3 -4 -4 -4 -4 -4 -5 -5 -5 -5 -5 -5 -5 -5 -6 -6 -6 -6 -6 -7 -7 -7 -7 -7 -7 -7 -8 -8 -8 -8 -8 -8 -9 -9
-2 -2 -2 -3 -3 -3 -3 -3 -4 -4 -4 -4 -5 -5 -5 -5 -5 -5 -5 -5 -5 -5 -6 -6 -6 -6 -6 -7 -7 -7 -7 -7 -8 -8 -8 -8 -8 -8 -8 -8 -9 -9 -9
-2 -3 -3 -3 -3 -3 -4 -4 -4 -4 -5 -5 -5 -5 -5 -5 -5 -6 -6 -6 -6 -6 -6 -6 -6 -6 -6 -7 -7 -7 -7 -8 -8 -8 -8 -8 -8 -8 -9 -9 -9 -9 -9
-3 -3 -3 -3 -4 -4 -4 -4 -5 -5 -5 -5 -5 -5 -6 -6 -6 -6 -6 -6 -6 -6 -6 -6 -6 -7 -7 -7 -7 -7 -8 -8 -8 -8 -8 -9 -9 -9 -9 -9 -9 -9 -9
Wind_Speed
4 4 4 4 4 4 4 4 4 4 4 5 5 5 5 5 5 5 5 5 6 6 5 5 6 5 4 4 4 4 5 5 7 6 4 4 5 6 5 6 7 6 6
3 3 3 3 3 4 4 4 4 4 4 5 5 5 5 5 5 6 6 6 6 7 7 6 6 5 6 5 5 5 5 6 7 8 6 5 6 6 6 6 6 6 7
2 3 3 3 3 4 4 4 4 4 4 4 5 5 5 5 6 6 6 6 7 7 7 7 7 6 7 6 6 6 5 5 6 7 7 5 5 5 6 6 6 6 6
2 3 3 3 4 4 4 4 4 4 4 4 5 5 5 5 6 6 6 7 7 7 7 7 7 7 8 7 6 7 6 6 6 7 7 6 6 5 5 5 5 5 5
2 3 3 3 3 3 3 3 4 4 4 4 5 5 5 5 6 6 6 7 7 7 7 7 8 8 8 8 6 7 7 6 6 6 7 6 6 5 5 4 6 6 6
3 3 3 3 3 3 3 3 4 4 4 4 5 5 6 5 6 8 8 7 7 8 8 7 7 8 9 11 11 11 9 9 8 7 7 8 8 7 5 5 5 5 5
3 3 3 3 3 3 3 4 4 4 5 5 5 6 6 7 7 9 9 8 8 8 8 7 6 7 8 8 9 11 11 13 12 10 9 9 8 7 6 7 6 7 7
3 3 3 3 3 4 4 5 5 5 5 5 5 6 7 7 8 9 9 9 8 9 9 9 9 8 8 8 8 8 9 10 11 10 10 10 8 7 7 7 8 8 8
4 4 3 3 4 4 5 5 5 5 5 5 6 6 7 8 8 9 9 7 7 9 9 9 9 9 10 10 9 9 9 9 9 11 12 11 11 11 9 6 6 6 7
4 4 4 4 4 5 5 5 5 5 6 6 6 7 8 8 8 9 9 6 7 8 7 8 10 11 11 11 10 10 10 9 8 8 9 11 11 11 12 9 7 7 6
3 4 4 4 5 5 5 5 5 5 6 6 7 7 7 8 9 10 10 7 7 7 7 7 7 10 13 13 13 11 11 9 8 8 8 8 7 7 7 8 8 7 7
3 4 5 5 4 4 5 5 5 5 6 6 6 7 6 6 7 8 10 11 10 8 8 7 7 9 12 13 12 12 12 11 7 7 7 7 7 7 6 7 8 9 9
4 5 5 5 5 5 5 6 5 5 5 6 6 6 6 5 6 9 11 11 12 9 8 9 10 11 11 10 12 13 11 8 7 8 8 7 7 6 6 6 7 7 9
5 5 5 5 5 5 5 5 5 5 6 6 6 7 7 6 6 5 5 6 8 9 8 9 11 11 10 9 9 9 8 8 8 8 8 7 6 5 6 6 6 5 6
6 5 5 5 5 5 5 5 6 7 7 7 7 7 7 8 7 8 8 7 6 7 7 6 6 6 7 7 7 7 7 7 8 7 7 6 6 6 6 5 5 5 6
5 5 4 4 4 5 5 6 8 10 11 13 13 12 10 12 13 13 13 13 13 12 8 7 8 8 8 7 7 7 7 7 7 7 7 7 7 6 6 5 6 6 7
6 5 5 5 5 5 5 6 7 7 9 12 13 13 13 14 14 14 14 13 13 12 9 8 8 8 8 7 7 7 7 7 6 6 7 7 7 6 6 6 6 6 7
6 6 6 5 5 5 6 6 6 7 8 7 8 11 12 13 13 13 13 11 9 8 8 8 8 8 7 7 7 7 7 6 6 7 7 7 7 7 7 7 7 7 7
6 5 5 5 5 6 6 6 6 8 8 8 8 7 9 10 11 11 10 8 8 8 8 8 8 8 7 7 7 7 7 7 7 7 7 7 7 7 7 7 7 8 8
6 7 7 6 6 6 6 6 7 7 8 8 8 8 6 6 7 7 6 7 7 8 8 8 8 8 7 7 7 7 7 7 7 7 7 7 6 7 7 8 7 7 7
5 5 7 6 6 6 6 7 7 7 8 8 8 9 10 8 8 8 8 8 8 8 8 8 8 8 7 7 7 7 8 7 7 7 7 6 6 6 6 6 7 7 6
5 5 5 6 6 6 7 7 7 8 8 9 9 9 11 9 8 8 8 8 8 8 7 7 8 7 7 7 7 7 7 7 7 6 6 6 6 6 6 6 6 6 6
6 6 6 6 6 8 8 7 7 8 8 9 9 8 8 8 8 8 8 8 8 8 7 7 8 7 7 7 7 7 8 7 6 6 6 6 6 6 6 6 7 7 6
6 6 7 7 6 7 7 8 8 8 8 9 9 8 8 8 8 9 8 8 7 7 7 7 8 9 9 7 7 7 7 7 7 6 8 7 6 6 6 6 6 7 7
6 6 7 7 7 7 7 8 8 8 8 8 8 8 8 8 9 8 8 7 8 8 8 8 7 7 9 9 8 7 9 10 9 7 6 6 6 6 6 6 6 6 6
7 7 7 7 7 7 8 8 8 9 9 8 8 8 8 8 8 8 7 7 7 7 7 7 7 8 8 8 9 10 10 10 10 10 7 6 6 6 6 6 7 6 6
Wind_Direction
216 220 228 231 231 241 246 252 254 256 251 246 245 248 249 249 248 244 243 244 243 244 240 240 241 242 245 240 235 237 241 247 261 274 271 277 281 287 299 300 300 301 304
217 219 230 237 233 239 250 255 254 254 253 250 246 245 247 248 247 246 247 245 245 247 246 242 242 238 242 243 237 238 240 243 255 270 272 273 275 283 291 292 292 290 292
219 225 233 239 239 245 254 256 253 254 258 255 249 249 251 250 249 248 250 250 248 249 248 245 244 241 243 241 239 242 243 244 247 259 269 271 274 276 284 282 282 281 289
225 236 245 252 254 256 261 262 258 257 260 260 255 254 254 253 250 249 247 248 250 249 249 247 246 241 243 244 243 243 243 243 244 251 261 267 270 273 275 282 286 286 290
228 240 251 258 259 260 263 266 265 263 264 265 262 259 255 252 248 247 247 247 251 253 250 247 245 241 243 244 243 244 241 242 245 249 257 264 263 266 269 280 284 295 289
236 246 254 257 260 264 270 273 272 270 268 265 263 264 262 255 252 251 254 254 252 251 252 250 248 241 241 243 244 246 246 244 244 248 254 257 263 265 269 273 283 291 289
239 248 251 255 262 268 271 269 269 270 269 266 267 266 267 264 259 260 252 254 254 251 251 252 250 245 242 245 245 244 246 246 246 250 254 258 265 264 266 268 269 273 277
241 249 252 254 263 270 268 267 271 272 270 269 269 268 270 269 264 265 260 254 254 252 248 248 251 253 243 241 247 248 250 247 242 244 251 259 264 266 259 265 274 277 278
242 251 256 258 264 269 270 274 277 274 274 273 273 272 272 274 266 264 261 257 253 254 251 247 247 252 247 241 245 250 255 255 246 243 251 257 261 259 255 257 258 263 272
249 258 263 262 263 268 273 277 275 272 274 277 275 273 271 275 272 264 258 253 254 258 257 252 244 246 251 244 243 247 253 257 256 253 249 251 254 251 245 243 246 250 260
253 258 262 263 264 269 273 272 272 272 274 275 278 279 277 274 275 266 257 250 253 261 262 261 255 246 250 250 247 249 252 259 260 258 258 255 251 247 243 240 240 241 246
250 255 261 265 266 265 268 270 268 268 274 278 282 286 281 274 268 269 262 256 258 259 262 264 261 253 254 255 253 249 253 256 256 254 254 253 250 247 245 244 244 244 247
249 255 263 268 267 263 266 270 272 269 269 275 276 279 282 280 271 265 267 263 260 258 262 263 266 264 262 259 252 250 250 249 248 249 251 252 250 250 248 247 247 249 254
250 257 261 266 270 268 264 262 263 265 267 269 271 274 279 280 276 272 269 267 263 263 264 264 264 264 257 256 256 250 246 245 246 250 253 254 248 241 239 239 242 244 252
252 258 261 262 267 271 267 262 261 262 262 269 274 273 276 279 277 275 277 276 273 270 274 270 264 261 258 253 250 250 247 245 246 246 247 246 244 242 241 237 237 239 247
250 257 260 263 266 269 276 279 252 252 265 264 264 267 270 270 279 280 278 275 274 270 266 260 258 257 256 256 254 252 247 246 245 244 243 242 241 242 243 238 235 239 249
247 256 260 261 264 268 271 277 288 276 256 259 262 265 266 273 277 278 280 278 273 266 258 256 257 257 256 255 254 253 251 248 241 241 243 242 240 241 241 240 238 242 249
248 252 254 259 261 264 266 269 272 281 289 286 269 266 270 273 276 277 278 278 268 256 252 255 257 258 258 256 254 253 251 246 240 240 241 240 237 238 240 241 240 243 249
247 251 254 260 261 263 265 266 267 270 274 281 286 281 274 278 279 276 271 260 260 259 258 258 259 260 259 256 254 251 247 244 241 238 239 237 234 235 240 242 242 243 247
248 246 252 260 261 262 262 263 266 269 273 276 277 281 288 285 279 276 265 260 261 262 262 261 262 260 259 257 254 249 246 243 239 237 238 235 233 233 238 240 240 243 245
252 252 247 256 258 259 261 262 265 268 271 274 275 277 279 278 275 274 272 267 264 263 264 265 265 262 258 256 253 249 246 244 240 237 236 234 231 232 235 238 240 242 246
250 253 252 255 259 260 264 264 265 267 271 274 279 280 278 273 272 272 270 268 267 265 264 263 263 260 254 251 249 248 247 245 240 234 234 233 230 231 232 234 236 239 242
246 252 257 258 259 263 265 264 265 268 272 275 278 279 276 271 270 270 271 271 270 267 263 258 259 259 254 248 244 242 244 243 237 231 230 231 230 230 230 233 235 240 242
249 254 258 261 261 261 264 267 267 269 272 275 275 275 273 272 272 271 271 271 270 268 263 258 257 258 257 255 251 244 241 239 234 229 225 227 229 231 231 233 237 241 246
253 255 257 259 261 263 265 267 268 269 270 271 272 273 273 273 273 273 272 270 270 268 265 261 258 257 255 252 250 245 240 236 233 226 222 225 226 227 230 234 238 243 245
256 257 259 260 260 262 264 267 269 270 271 271 271 272 273 273 274 274 273 271 270 269 266 262 256 256 257 254 248 243 241 238 235 230 226 225 224 228 229 234 239 241 246
Height
1503 1503 1503 1503 1503 1503 1503 1502 1501 1501 1500 1500 1499 1499 1498 1498 1496 1495 1495 1494 1494 1493 1492 1491 1490 1490 1489 1488 1488 1487 1486 1486 1484 1482 1481 1480 1478 1476 1475 1473 1472 1470 1468
1501 1501 1501 1500 1500 1500 1499 1498 1498 1497 1497 1496 1495 1495 1494 1494 1493 1491 1490 1490 1489 1488 1488 1487 1486 1485 1485 1484 1483 1482 1482 1481 1480 1478 1477 1475 1474 1472 1471 1469 1468 1466 1464
1498 1498 1498 1497 1497 1496 1496 1495 1494 1493 1493 1492 1491 1491 1490 1490 1489 1488 1486 1486 1485 1484 1483 1482 1482 1481 1480 1480 1479 1478 1477 1476 1475 1474 1472 1471 1469 1468 1467 1465 1463 1462 1460
1495 1495 1494 1494 1494 1493 1492 1491 1490 1490 1489 1488 1487 1487 1486 1485 1484 1483 1482 1481 1480 1479 1479 1478 1477 1476 1476 1475 1474 1473 1473 1472 1471 1469 1468 1466 1465 1464 1462 1461 1459 1458 1456
1492 1492 1491 1491 1490 1489 1488 1487 1487 1486 1485 1484 1483 1482 1481 1480 1480 1479 1478 1476 1475 1474 1473 1473 1472 1471 1470 1470 1469 1469 1468 1467 1466 1465 1463 1462 1460 1459 1458 1457 1455 1453 1451
1489 1489 1488 1487 1487 1486 1485 1484 1483 1482 1481 1480 1479 1478 1477 1476 1475 1474 1473 1472 1470 1469 1468 1467 1467 1466 1465 1465 1464 1463 1463 1462 1460 1460 1458 1457 1456 1455 1454 1452 1451 1449 1447
1486 1486 1485 1484 1483 1482 1482 1481 1480 1478 1477 1476 1475 1474 1472 1471 1470 1469 1468 1466 1465 1464 1463 1462 1461 1460 1459 1459 1458 1457 1456 1456 1455 1455 1453 1452 1451 1450 1449 1447 1446 1445 1443
1483 1482 1482 1481 1480 1479 1478 1477 1476 1475 1473 1472 1471 1469 1468 1466 1465 1464 1462 1461 1459 1458 1457 1456 1455 1454 1454 1453 1452 1451 1450 1450 1449 1448 1448 1447 1446 1445 1444 1443 1442 1440 1438
1480 1479 1478 1478 1477 1476 1475 1474 1472 1471 1469 1468 1466 1464 1463 1461 1460 1459 1457 1455 1454 1453 1452 1451 1450 1449 1448 1447 1446 1445 1444 1444 1443 1442 1441 1441 1440 1439 1438 1438 1436 1435 1433
1476 1476 1475 1474 1473 1472 1471 1470 1468 1467 1465 1463 1462 1460 1458 1456 1455 1453 1452 1450 1448 1447 1446 1445 1444 1443 1442 1441 1440 1439 1438 1438 1437 1436 1435 1434 1434 1433 1432 1432 1431 1430 1428
1473 1472 1471 1470 1469 1468 1467 1466 1464 1462 1460 1459 1457 1455 1453 1451 1449 1448 1446 1444 1443 1441 1440 1439 1438 1437 1436 1435 1434 1433 1432 1432 1431 1430 1429 1428 1427 1426 1426 1425 1425 1424 1423
1469 1468 1467 1467 1465 1464 1463 1461 1460 1458 1456 1454 1452 1450 1448 1446 1445 1443 1441 1439 1438 1436 1435 1433 1432 1431 1430 1429 1428 1427 1427 1426 1425 1424 1423 1422 1421 1420 1420 1419 1419 1418 1417
1465 1464 1463 1462 1461 1460 1458 1456 1455 1453 1451 1449 1447 1445 1443 1441 1439 1437 1436 1434 1432 1430 1429 1427 1426 1425 1424 1422 1422 1421 1421 1420 1418 1418 1417 1416 1416 1415 1414 1413 1412 1411 1411
1461 1460 1459 1458 1456 1455 1453 1452 1450 1448 1446 1444 1442 1439 1437 1435 1434 1432 1430 1428 1426 1425 1423 1421 1420 1419 1417 1416 1415 1415 1414 1413 1412 1411 1411 1410 1410 1409 1408 1407 1406 1405 1404
1457 1456 1454 1453 1452 1450 1448 1447 1445 1443 1441 1439 1436 1434 1432 1429 1428 1427 1424 1422 1421 1419 1417 1416 1414 1413 1411 1410 1409 1408 1408 1407 1406 1405 1405 1404 1403 1403 1402 1401 1401 1400 1399
1452 1451 1450 1448 1447 1445 1443 1441 1439 1438 1436 1433 1431 1429 1426 1424 1422 1420 1419 1417 1415 1414 1412 1409 1408 1407 1406 1404 1403 1402 1401 1400 1400 1399 1399 1398 1397 1397 1396 1396 1395 1394 1393
1447 1446 1444 1443 1441 1440 1437 1435 1433 1431 1429 1427 1425 1423 1420 1418 1416 1414 1412 1410 1409 1407 1406 1403 1402 1401 1400 1399 1397 1396 1395 1394 1394 1393 1392 1392 1392 1391 1391 1390 1389 1389 1388
1442 1441 1439 1438 1436 1434 1432 1430 1427 1425 1422 1420 1419 1417 1414 1412 1410 1408 1406 1404 1402 1401 1399 1398 1396 1395 1394 1393 1391 1390 1389 1388 1388 1387 1386 1386 1386 1385 1385 1384 1384 1383 1383
1436 1435 1434 1432 1430 1428 1426 1424 1422 1419 1416 1414 1412 1410 1408 1406 1404 1402 1400 1398 1396 1394 1393 1392 1390 1389 1388 1387 1385 1384 1383 1382 1381 1381 1380 1380 1380 1380 1379 1379 1378 1378 1378
1431 1429 1428 1426 1424 1422 1420 1418 1416 1413 1411 1408 1406 1404 1402 1400 1397 1396 1394 1392 1390 1388 1387 1385 1384 1383 1381 1380 1379 1378 1377 1376 1375 1375 1374 1374 1374 1374 1374 1373 1373 1373 1372
1425 1423 1422 1420 1418 1416 1414 1412 1410 1407 1405 1403 1400 1398 1396 1394 1391 1390 1388 1386 1384 1382 1381 1379 1377 1376 1375 1374 1373 1372 1371 1370 1370 1369 1369 1369 1369 1368 1368 1368 1368 1367 1367
1419 1417 1416 1414 1412 1410 1408 1406 1404 1401 1399 1397 1394 1392 1390 1388 1385 1383 1381 1380 1378 1376 1375 1373 1371 1369 1368 1367 1366 1366 1365 1364 1364 1364 1363 1363 1363 1363 1363 1363 1363 1362 1362
1413 1411 1410 1408 1406 1404 1402 1400 1398 1395 1393 1391 1388 1386 1384 1382 1379 1377 1375 1373 1371 1370 1368 1366 1364 1363 1362 1361 1360 1359 1359 1358 1358 1358 1358 1358 1358 1358 1358 1358 1358 1358 1357
1407 1405 1403 1401 1399 1398 1396 1393 1391 1389 1387 1384 1382 1380 1378 1375 1373 1371 1369 1367 1365 1363 1362 1360 1358 1357 1356 1355 1354 1353 1353 1353 1353 1353 1353 1353 1353 1353 1353 1353 1353 1353 1353
1401 1399 1397 1395 1393 1391 1389 1387 1385 1383 1380 1378 1376 1374 1371 1369 1367 1365 1363 1361 1359 1357 1355 1354 1352 1351 1350 1349 1348 1348 1348 1348 1348 1348 1348 1348 1348 1348 1348 1349 1348 1348 1348
1395 1393 1391 1389 1387 1385 1383 1381 1378 1376 1374 1372 1370 1368 1365 1363 1361 1359 1357 1355 1353 1351 1349 1348 1346 1345 1344 1343 1343 1343 1342 1342 1343 1343 1343 1344 1344 1344 1344 1344 1344 1344 1344